Main page
METAR-TAF:

METAR-TAF

Airports :

Jammu, India

Jammu Airport

latitude: 32-41-21N, longitude: 74-50-15E, elevation: 314 m

Current weather observation

The report was made 5 hours and 52 minutes ago, at 11:30 UTC
Wind 5 kt from the South/Southwest
Temperature 36°C
Humidity 47%
Pressure 998 hPa
Visibility: 6000 m
Scattered clouds at a height of 2500 ft
Few clouds at a height of 3000 ft, Cumulonimbus.
Scattered clouds at a height of 10000 ft

METAR: VIJU 261130Z 20005KT 6000 SCT025 FEW030CB SCT100 36/23 Q0998 TEMPO TS

Time: 22:52 (17:22 UTC)


TAF: missing

Weather observations and forecasts of more than 4000 airports (METAR and TAF reports).

The available stations are represented by yellow and red dots on the map.

Hover mouse over dot to see the name of the station.

Then click to see weather observations and forecasts.

To change the map : click on the green buttons with a black cross to zoom in, on the green button with a dash to zoom out, or on the green arrows for adjacent maps.


METAR-TAF: